This is the latest recevied weather packets stored in our database for station/object ON5MM-5. If no packets are shown the sender has not sent any weather packets the latest 10 day(s).
| Time | Temp. | Humidity | Pressure | Rain* | Wind** | Luminosity | Snow |
|---|---|---|---|---|---|---|---|
| 1777707902 | 17.22° C | 51% | 1021.5 hPa | 0 mm | 3.13 m/s, ° | - | - |
| 1777707602 | 17.22° C | 51% | 1021.5 hPa | 0 mm | 3.13 m/s, ° | - | - |
| 1777707302 | 17.22° C | 49% | 1021.5 hPa | 0 mm | 2.24 m/s, ° | - | - |
| 1777707002 | 17.78° C | 49% | 1021.6 hPa | 0 mm | 1.79 m/s, ° | - | - |
| 1777706703 | 17.78° C | 48% | 1021.5 hPa | 0 mm | 0.45 m/s, ° | - | - |
| 1777706403 | 17.78° C | 48% | 1021.3 hPa | 0 mm | 0.89 m/s, ° | - | - |
| 1777706103 | 17.78° C | 48% | 1021.2 hPa | 0 mm | 0.45 m/s, ° | - | - |
| 1777705802 | 17.78° C | 47% | 1021.2 hPa | 0 mm | 0.89 m/s, ° | - | - |
| 1777705502 | 17.78° C | 48% | 1021.1 hPa | 0 mm | 1.79 m/s, ° | - | - |
| 1777705202 | 17.78° C | 48% | 1021.3 hPa | 0 mm | 1.79 m/s, ° | - | - |
| 1777704902 | 17.78° C | 48% | 1021.3 hPa | 0 mm | 1.79 m/s, ° | - | - |
| 1777704602 | 17.78° C | 50% | 1021.5 hPa | 0 mm | 2.24 m/s, ° | - | - |
| 1777704302 | 17.22° C | 50% | 1021.5 hPa | 0 mm | 1.79 m/s, ° | - | - |
| 1777704002 | 17.22° C | 50% | 1021.5 hPa | 0 mm | 1.34 m/s, ° | - | - |
| 1777703703 | 16.67° C | 50% | 1021.5 hPa | 0 mm | 1.79 m/s, ° | - | - |
| 1777703403 | 16.67° C | 50% | 1021.5 hPa | 0 mm | 1.79 m/s, ° | - | - |
| 1777703103 | 16.11° C | 50% | 1021.4 hPa | 0 mm | 1.34 m/s, ° | - | - |
| 1777702803 | 16.11° C | 49% | 1021.5 hPa | 0 mm | 1.79 m/s, ° | - | - |
| 1777702503 | 16.11° C | 49% | 1021.5 hPa | 0 mm | 1.79 m/s, ° | - | - |
| 1777702202 | 15.56° C | 48% | 1021.6 hPa | 0 mm | 2.24 m/s, ° | - | - |
| 1777701903 | 15.56° C | 47% | 1021.5 hPa | 0 mm | 1.79 m/s, ° | - | - |
| 1777701602 | 15.56° C | 47% | 1021.5 hPa | 0 mm | 1.79 m/s, ° | - | - |
| 1777701302 | 15.56° C | 46% | 1021.5 hPa | 0 mm | 2.24 m/s, ° | - | - |
| 1777701003 | 15° C | 46% | 1021.5 hPa | 0 mm | 2.24 m/s, ° | - | - |
| 1777700702 | 15° C | 46% | 1021.4 hPa | 0 mm | 2.24 m/s, ° | - | - |
* Rain latest hour (hover to see other rain measurements)
** Current wind speed in m/s (hover to see current wind gust speed)